ProjectID,Date,Electric Generation,Electric Utility Import,Facility Electric Load
,YYYY-MM-DD,kW,kW,kW
232,2014-08-01,0.0,,0.0
232,2014-08-02,0.0,,0.0
232,2014-08-03,0.0,,0.0
232,2014-08-04,0.0,,0.0
232,2014-08-05,4.802541666666667,,4.802541666666667
232,2014-08-06,5.51325,,5.51325
232,2014-08-07,5.4154583333333335,,5.4154583333333335
232,2014-08-08,5.73525,,5.73525
232,2014-08-09,5.680041666666667,,5.680041666666667
232,2014-08-10,5.3970416666666665,,5.3970416666666665
232,2014-08-11,5.106833333333333,,5.106833333333333
232,2014-08-12,2.081375,,2.081375
232,2014-08-13,2.958958333333333,,2.958958333333333
232,2014-08-14,4.6312500000000005,,4.6312500000000005
232,2014-08-15,3.8462083333333332,,3.8462083333333332
232,2014-08-16,4.763791666666667,,4.763791666666667
232,2014-08-17,3.7153750000000003,,3.7153750000000003
232,2014-08-18,5.2473333333333345,,5.2473333333333345
232,2014-08-19,5.428208333333333,,5.428208333333333
232,2014-08-20,4.547375,,4.547375
232,2014-08-21,3.5902500000000006,,3.5902500000000006
232,2014-08-22,2.3436666666666666,,2.3436666666666666
232,2014-08-23,2.7507916666666663,,2.7507916666666663
232,2014-08-24,4.011333333333332,,4.011333333333332
232,2014-08-25,5.092,,5.092
232,2014-08-26,4.148291666666667,,4.148291666666667
232,2014-08-27,4.352041666666667,,4.352041666666667
232,2014-08-28,4.757916666666666,,4.757916666666666
232,2014-08-29,5.110333333333334,,5.110333333333334
232,2014-08-30,3.5792083333333324,,3.5792083333333324
232,2014-08-31,2.5981666666666667,,2.5981666666666667
232,2014-09-01,3.1839999999999997,,5.713666666666667
232,2014-09-02,4.403041666666668,,7.864625
232,2014-09-03,4.740666666666667,,8.366375
232,2014-09-04,4.5207500000000005,,8.140166666666666
232,2014-09-05,3.1047916666666673,,5.614875000000001
232,2014-09-06,3.721833333333333,,6.644541666666665
232,2014-09-07,4.699749999999999,,8.420333333333332
232,2014-09-08,3.705208333333333,,6.577
232,2014-09-09,2.4663333333333335,,18.330999999999996
232,2014-09-10,3.737166666666667,,6.758666666666667
232,2014-09-11,1.5278749999999997,,9.321
232,2014-09-12,4.8695,,8.778208333333332
232,2014-09-13,1.1653750000000003,,8.097166666666668
232,2014-09-14,4.718958333333334,,37.859625
232,2014-09-15,4.7843333333333335,,38.15116666666666
232,2014-09-16,2.1739166666666674,,3.8937916666666674
232,2014-09-17,4.8220833333333335,,37.54274999999999
232,2014-09-18,4.325416666666667,,34.640333333333324
232,2014-09-19,4.020791666666667,,13.401375000000003
232,2014-09-20,4.586166666666666,,27.691249999999997
232,2014-09-21,2.0537500000000004,,4.139083333333334
232,2014-09-22,5.388375,,37.389541666666666
232,2014-09-23,6.805000000000002,,42.00141666666667
232,2014-09-24,5.100208333333333,,30.756208333333326
232,2014-09-25,1.8283333333333334,,9.223250000000002
232,2014-09-26,6.516666666666668,,12.927833333333336
232,2014-09-27,6.313875,,12.591541666666668
232,2014-09-28,5.780375000000002,,11.57729166666667
232,2014-09-29,3.131791666666665,,6.279708333333332
232,2014-09-30,2.785749999999999,,5.563166666666667
232,2014-10-01,1.1434999999999997,,4.131458333333334
232,2014-10-02,2.5034166666666673,,15.326625000000003
232,2014-10-03,6.149000000000001,,38.25370833333332
232,2014-10-04,0.9253749999999998,,5.689958333333332
232,2014-10-05,6.418083333333335,,39.734875
232,2014-10-06,5.870791666666669,,36.50929166666667
232,2014-10-07,3.7569583333333316,,23.407708333333325
232,2014-10-08,5.483125000000001,,34.618875
232,2014-10-09,4.164166666666666,,25.791208333333326
232,2014-10-10,3.7347499999999996,,23.340999999999994
232,2014-10-11,1.2547916666666665,,7.802875
232,2014-10-12,5.901125000000001,,36.492666666666665
232,2014-10-13,1.6378750000000009,,10.110583333333338
232,2014-10-14,4.110208333333333,,25.23254166666666
232,2014-10-15,2.451083333333334,,15.095958333333337
232,2014-10-16,2.382458333333334,,14.57591666666667
232,2014-10-17,5.145249999999999,,31.92133333333333
232,2014-10-18,2.3676250000000003,,14.616958333333338
232,2014-10-19,4.338416666666666,,26.494333333333326
232,2014-10-20,3.8347499999999983,,23.82779166666666
232,2014-10-21,2.2805000000000004,,14.285333333333334
232,2014-10-22,0.9750416666666665,,6.0921666666666665
232,2014-10-23,0.9167499999999998,,5.768458333333332
232,2014-10-24,2.4405000000000006,,15.134500000000003
232,2014-10-25,4.84325,,30.157083333333333
232,2014-10-26,1.5686250000000006,,12.387166666666673
232,2014-10-27,4.979333333333332,,30.985999999999994
232,2014-10-28,3.3921249999999996,,21.24866666666666
232,2014-10-29,2.1715833333333334,,13.492458333333335
232,2014-10-30,3.869999999999999,,24.188249999999996
232,2014-10-31,2.2427500000000005,,13.871625000000002
232,2014-11-01,0.5369166666666667,,3.4223750000000006
232,2014-11-02,3.83675,,23.73291666666666
232,2014-11-03,4.613791666666666,,28.298666666666655
232,2014-11-04,4.171124999999999,,25.829041666666654
232,2014-11-05,1.2964166666666666,,8.078583333333334
232,2014-11-06,0.314125,,2.0214583333333334
232,2014-11-07,2.7370416666666664,,17.09504166666666
232,2014-11-08,4.083,,25.44754166666666
232,2014-11-09,3.2179999999999995,,19.842708333333327
232,2014-11-10,4.027749999999999,,25.12116666666666
232,2014-11-11,2.8907916666666655,,17.755249999999993
232,2014-11-12,1.4205833333333338,,8.78754166666667
232,2014-11-13,2.0010000000000003,,15.302291666666664
232,2014-11-14,3.4867499999999993,,23.580583333333326
232,2014-11-15,3.13975,,24.434999999999995
232,2014-11-16,0.9993333333333333,,5.795375000000001
232,2014-11-17,0.2950416666666666,,1.8866249999999998
232,2014-11-18,4.034999999999999,,25.46679166666666
232,2014-11-19,4.107208333333333,,25.540291666666665
232,2014-11-20,3.2917500000000004,,20.457375
232,2014-11-21,3.9244583333333334,,7.7701666666666656
232,2014-11-22,3.552124999999999,,7.112833333333331
232,2014-11-23,2.487458333333334,,4.933416666666668
232,2014-11-24,1.7082083333333336,,3.348083333333334
232,2014-11-25,1.2424583333333332,,2.511166666666667
232,2014-11-26,0.010291666666666666,,0.030041666666666675
232,2014-11-27,0.05662500000000001,,0.09908333333333334
232,2014-11-28,0.191125,,0.3130833333333333
232,2014-11-29,0.12116666666666664,,0.26666666666666666
232,2014-11-30,0.4834583333333334,,1.0147916666666665
232,2014-12-01,1.7320000000000004,,3.491875000000001
232,2014-12-02,1.0210416666666664,,2.0702499999999997
232,2014-12-03,0.39270833333333344,,0.8182083333333332
232,2014-12-04,3.402541666666666,,6.853583333333331
232,2014-12-05,1.2098333333333333,,7.547874999999998
232,2014-12-06,0.30491666666666667,,1.7900416666666663
232,2014-12-07,3.4668749999999995,,21.50262499999999
232,2014-12-08,0.8386666666666663,,5.208666666666664
232,2014-12-09,0.10624999999999997,,0.708375
232,2014-12-10,0.6522500000000001,,4.092208333333333
232,2014-12-11,0.8721249999999999,,5.004666666666666
232,2014-12-12,2.9248749999999997,,17.972749999999994
232,2014-12-13,3.1751249999999995,,19.817333333333327
232,2014-12-14,1.2788749999999998,,7.909958333333333
232,2014-12-15,3.187208333333333,,19.91316666666666
232,2014-12-16,0.7299166666666665,,4.5644166666666655
232,2014-12-17,1.8215000000000003,,11.482875000000005
232,2014-12-18,1.8463750000000003,,11.54491666666667
232,2014-12-19,2.3549583333333337,,14.765916666666671
232,2014-12-20,1.0368333333333333,,6.419624999999999
232,2014-12-21,0.8511666666666664,,5.287208333333332
232,2014-12-22,0.7960833333333331,,4.928083333333332
232,2014-12-23,0.5187083333333334,,3.264333333333334
232,2014-12-24,0.29999999999999993,,1.7697916666666664
232,2014-12-25,1.7460833333333337,,10.832500000000003
232,2014-12-26,3.216708333333333,,20.055583333333324
232,2014-12-27,3.029416666666666,,18.901624999999992
232,2014-12-28,0.9902916666666665,,5.710583333333332
232,2014-12-29,3.16775,,19.73141666666666
232,2014-12-30,1.9317916666666672,,11.967333333333336
232,2014-12-31,2.9477499999999996,,18.39037499999999
232,2015-01-01,3.368416666666666,,20.962458333333327
232,2015-01-02,2.2426250000000003,,13.89066666666667
232,2015-01-03,0.7997083333333332,,5.047041666666666
232,2015-01-04,0.40920833333333345,,2.600416666666667
232,2015-01-05,3.0673749999999997,,19.020916666666658
232,2015-01-06,0.3471666666666668,,2.178125000000001
232,2015-01-07,1.0069166666666665,,5.904916666666667
232,2015-01-08,2.5317500000000006,,18.620916666666663
232,2015-01-09,0.14254166666666662,,0.9719999999999999
232,2015-01-10,0.4542500000000001,,2.9270833333333344
232,2015-01-11,0.34670833333333345,,2.1340833333333338
232,2015-01-12,0.27199999999999996,,1.7667916666666668
232,2015-01-13,3.875,,24.111291666666663
232,2015-01-14,1.6600833333333334,,11.129333333333335
232,2015-01-15,3.4867916666666656,,21.722708333333326
232,2015-01-16,3.4577083333333327,,21.475208333333327
232,2015-01-17,3.8182083333333328,,23.77424999999999
232,2015-01-18,0.18141666666666667,,1.1804583333333332
232,2015-01-19,1.652708333333334,,10.417833333333338
232,2015-01-20,2.532291666666667,,15.713416666666665
232,2015-01-21,2.2667500000000005,,14.067208333333339
232,2015-01-22,3.070749999999999,,18.886999999999993
232,2015-01-23,4.0515,,25.19866666666666
232,2015-01-24,0.0012500000000000005,,0.040750000000000015
232,2015-01-25,0.0964583333333333,,0.6534166666666664
232,2015-01-26,0.012041666666666666,,0.11379166666666668
232,2015-01-27,0.0015833333333333333,,0.04312500000000001
232,2015-01-28,0.004916666666666667,,0.08641666666666668
232,2015-01-29,0.0068333333333333345,,0.09475000000000003
232,2015-01-30,0.0014583333333333334,,0.04191666666666668
232,2015-01-31,0.008416666666666668,,0.12016666666666669
232,2015-02-01,0.004625000000000001,,0.09145833333333335
232,2015-02-02,0.0012083333333333336,,0.04333333333333334
232,2015-02-03,0.001708333333333334,,0.04625000000000002
232,2015-02-04,0.0013750000000000004,,0.04425000000000001
232,2015-02-05,0.001416666666666667,,0.04404166666666668
232,2015-02-06,0.0012083333333333338,,0.046333333333333344
232,2015-02-07,0.0013750000000000006,,0.04483333333333335
232,2015-02-08,0.001583333333333334,,0.04425000000000001
232,2015-02-09,0.0012500000000000005,,0.04433333333333335
232,2015-02-10,0.0014166666666666674,,0.04416666666666668
232,2015-02-11,0.0016250000000000006,,0.04487500000000001
232,2015-02-12,0.0015000000000000005,,0.04375000000000001
232,2015-02-13,0.0014166666666666668,,0.046666666666666676
232,2015-02-14,0.0012500000000000005,,0.04579166666666669
232,2015-02-15,0.0012083333333333336,,0.04541666666666668
232,2015-02-16,0.0012500000000000002,,0.04787500000000001
232,2015-02-17,0.0016250000000000006,,0.047083333333333345
232,2015-02-18,0.0012500000000000005,,0.04637500000000001
232,2015-02-19,0.001416666666666667,,0.046083333333333344
232,2015-02-20,0.0016250000000000004,,0.048333333333333346
232,2015-02-21,0.001416666666666667,,0.04704166666666668
232,2015-02-22,0.0014583333333333338,,0.04350000000000001
232,2015-02-23,0.001458333333333334,,0.04454166666666668
232,2015-02-24,0.0012916666666666669,,0.047666666666666684
232,2015-02-25,0.001291666666666667,,0.04525000000000001
232,2015-02-26,0.0014583333333333338,,0.04545833333333335
232,2015-02-27,0.0010833333333333337,,0.04575000000000001
232,2015-02-28,0.0010833333333333337,,0.04579166666666668
232,2015-03-01,0.0014583333333333338,,0.04575000000000001
232,2015-03-02,0.0016666666666666672,,0.04420833333333335
232,2015-03-03,0.0012083333333333338,,0.04379166666666668
232,2015-03-04,0.0013750000000000004,,0.04275000000000001
232,2015-03-05,0.001708333333333334,,0.04329166666666668
232,2015-03-06,0.0010833333333333337,,0.04516666666666668
232,2015-03-07,0.0012916666666666673,,0.04458333333333335
232,2015-03-08,0.0017083333333333334,,0.04250000000000001
232,2015-03-09,0.0016666666666666668,,0.042416666666666686
232,2015-03-10,0.0013333333333333337,,0.041875000000000016
232,2015-03-11,0.013000000000000003,,0.14104166666666662
232,2015-03-12,0.1262083333333333,,0.9068333333333332
232,2015-03-13,0.20366666666666663,,1.4117916666666666
232,2015-03-14,0.046625,,0.49316666666666664
232,2015-03-15,1.525666666666667,,7.985666666666666
232,2015-03-16,3.7299166666666665,,19.291041666666658
232,2015-03-17,3.1840833333333323,,17.661833333333327
232,2015-03-18,6.185083333333334,,34.3945
232,2015-03-19,7.547083333333334,,40.044916666666666
232,2015-03-20,1.2610833333333333,,7.128791666666666
232,2015-03-21,0.6731249999999999,,4.212624999999999
232,2015-03-22,7.813083333333334,,39.669875
232,2015-03-23,7.838541666666667,,41.32475
232,2015-03-24,7.516166666666668,,41.266458333333325
232,2015-03-25,4.697874999999999,,26.894791666666663
232,2015-03-26,1.3106666666666666,,7.467291666666669
232,2015-03-27,2.423083333333334,,13.691333333333338
232,2015-03-28,2.0198750000000003,,11.395291666666669
232,2015-03-29,7.775666666666669,,40.530833333333334
232,2015-03-30,3.2104999999999997,,18.264874999999996
232,2015-03-31,3.563458333333333,,20.128999999999998
232,2015-04-01,7.419083333333334,,39.204541666666664
232,2015-04-02,7.613458333333335,,40.70683333333334
232,2015-04-03,1.496958333333333,,8.310708333333332
232,2015-04-04,7.541250000000001,,38.55754166666667
232,2015-04-05,5.035166666666666,,30.849500000000006
232,2015-04-06,7.294375000000001,,44.18866666666667
232,2015-04-07,1.4264999999999999,,8.696083333333334
232,2015-04-08,1.4606249999999996,,7.851500000000001
232,2015-04-09,1.3162916666666666,,9.925458333333333
232,2015-04-10,1.7322916666666668,,13.002125
232,2015-04-11,6.9454166666666675,,46.80312500000001
232,2015-04-12,6.746833333333334,,47.474208333333344
232,2015-04-13,6.602875000000002,,41.948083333333344
232,2015-04-14,3.1527083333333334,,19.42704166666667
232,2015-04-15,7.168791666666668,,43.19370833333333
232,2015-04-16,7.888333333333333,,46.65354166666667
232,2015-04-17,3.592791666666667,,22.71216666666667
232,2015-04-18,7.820333333333335,,46.00404166666667
232,2015-04-19,7.9084166666666675,,46.78816666666667
232,2015-04-20,1.6744583333333338,,10.360833333333332
232,2015-04-21,6.740041666666669,,39.827291666666675
232,2015-04-22,6.336958333333335,,38.176625
232,2015-04-23,5.102916666666666,,31.787625
232,2015-04-24,4.822708333333332,,29.766083333333334
232,2015-04-25,8.830875,,17.863833333333332
232,2015-04-26,6.929458333333334,,42.936125
232,2015-04-27,5.479375000000002,,11.006916666666669
232,2015-04-28,8.785416666666666,,48.69758333333334
232,2015-04-29,8.717208333333334,,50.38275
232,2015-04-30,8.484750000000002,,48.684125000000016
232,2015-05-01,5.905250000000001,,36.503375000000005
232,2015-05-02,8.250208333333335,,49.09208333333334
232,2015-05-03,7.879791666666667,,47.51691666666667
232,2015-05-04,7.910125000000002,,48.840958333333326
232,2015-05-05,5.855708333333336,,36.28179166666666
232,2015-05-06,3.5122083333333323,,21.75429166666667
232,2015-05-07,8.248083333333332,,50.98954166666666
232,2015-05-08,8.025333333333334,,49.516208333333324
232,2015-05-09,5.04875,,31.28025
232,2015-05-10,6.041541666666668,,37.26154166666666
232,2015-05-11,5.755416666666666,,35.57191666666666
232,2015-05-12,6.2928749999999996,,38.90683333333333
232,2015-05-13,6.147791666666667,,37.256249999999994
232,2015-05-14,8.687625,,51.61379166666667
232,2015-05-15,6.620208333333334,,40.93920833333333
232,2015-05-16,4.781208333333333,,29.483750000000008
232,2015-05-17,6.97079166666667,,41.599833333333336
232,2015-05-18,2.6093750000000004,,16.172291666666666
232,2015-05-19,5.0504999999999995,,31.021416666666664
232,2015-05-20,7.442250000000001,,45.36204166666668
232,2015-05-21,6.104708333333335,,37.564083333333336
232,2015-05-22,8.082583333333336,,45.534125
232,2015-05-23,9.354083333333334,,53.48708333333333
232,2015-05-24,7.754333333333334,,48.103791666666666
232,2015-05-25,7.887041666666665,,48.541166666666676
232,2015-05-26,8.166291666666668,,50.328416666666676
232,2015-05-27,5.1068333333333324,,31.623250000000002
232,2015-05-28,6.095166666666668,,37.453125
232,2015-05-29,8.528625000000002,,51.41295833333334
232,2015-05-30,8.257333333333333,,49.55466666666666
232,2015-05-31,3.336458333333334,,20.772875000000003
232,2015-06-01,1.3880416666666673,,8.642708333333333
232,2015-06-02,1.8805000000000003,,11.680000000000001
232,2015-06-03,8.483125,,48.84095833333333
232,2015-06-04,6.858958333333335,,41.97058333333334
232,2015-06-05,4.961666666666667,,30.659291666666665
232,2015-06-06,6.460625000000003,,39.7085
232,2015-06-07,9.342833333333333,,54.334666666666664
232,2015-06-08,6.152416666666667,,37.63891666666667
232,2015-06-09,0.6996666666666665,,4.272875
232,2015-06-10,8.524458333333333,,49.68475
232,2015-06-11,5.752666666666669,,34.37229166666667
232,2015-06-12,7.6081249999999985,,44.73924999999999
232,2015-06-13,8.259333333333334,,48.00266666666667
232,2015-06-14,8.371666666666668,,48.75629166666666
232,2015-06-15,2.120541666666667,,15.247666666666667
232,2015-06-16,4.073291666666666,,25.72604166666667
232,2015-06-17,5.156375,,30.250499999999995
232,2015-06-18,3.3559166666666655,,20.75133333333333
232,2015-06-19,7.101500000000001,,43.631125000000004
232,2015-06-20,2.262041666666667,,14.113958333333338
232,2015-06-21,6.027416666666667,,36.81183333333333
232,2015-06-22,9.068000000000003,,55.888416666666664
232,2015-06-23,5.151249999999998,,32.69083333333333
232,2015-06-24,9.4475,,58.305249999999994
232,2015-06-25,7.009124999999998,,44.82074999999999
232,2015-06-26,7.136416666666669,,44.13033333333333
232,2015-06-27,2.1989583333333336,,13.540333333333335
232,2015-06-28,3.270499999999999,,20.203249999999993
232,2015-06-29,6.483625000000003,,39.04358333333333
232,2015-06-30,6.7610833333333344,,42.968333333333334
232,2015-07-01,6.9905,,42.62116666666667
232,2015-07-02,6.319125000000002,,37.98
232,2015-07-03,7.3779166666666685,,40.78179166666666
232,2015-07-04,4.380583333333333,,27.221708333333332
232,2015-07-05,8.463916666666666,,51.87504166666666
232,2015-07-06,6.052958333333335,,37.42858333333332
232,2015-07-07,5.728416666666668,,36.296208333333325
232,2015-07-08,4.286333333333333,,26.28770833333333
232,2015-07-09,2.7834999999999996,,17.183666666666664
232,2015-07-10,7.264875000000001,,43.93308333333334
232,2015-07-11,8.719208333333333,,52.99583333333333
232,2015-07-12,7.564333333333334,,46.23358333333334
232,2015-07-13,7.727750000000001,,45.92466666666666
232,2015-07-14,4.482291666666666,,27.427916666666665
232,2015-07-15,3.982125,,24.80745833333333
232,2015-07-16,8.969166666666668,,54.637708333333336
232,2015-07-17,7.053083333333334,,43.31008333333333
232,2015-07-18,4.731708333333333,,28.936458333333334
232,2015-07-19,8.072874999999998,,49.157291666666666
232,2015-07-20,8.057125000000001,,49.23166666666666
232,2015-07-21,5.122208333333333,,31.265874999999994
232,2015-07-22,8.23375,,50.48570833333333
232,2015-07-23,8.145875000000002,,50.88187500000001
232,2015-07-24,6.309958333333334,,38.35999999999999
232,2015-07-25,0.0,,0.0
232,2015-07-26,0.0,,0.0
232,2015-07-27,2.448541666666667,,15.045958333333335
232,2015-07-28,8.192125000000003,,49.730374999999995
232,2015-07-29,6.5155,,39.599916666666665
232,2015-07-30,3.316874999999999,,21.377249999999993
232,2015-07-31,8.790750000000001,,53.36975
232,2015-08-01,6.7285,,41.02145833333332
232,2015-08-02,8.086250000000001,,49.309625000000004
232,2015-08-03,6.876916666666666,,46.439625
232,2015-08-04,8.151208333333335,,49.570166666666665
232,2015-08-05,6.049874999999999,,36.861041666666665
232,2015-08-06,7.145875000000001,,43.75416666666666
232,2015-08-07,7.722083333333334,,47.06491666666666
232,2015-08-08,5.7168333333333345,,35.06729166666666
232,2015-08-09,7.353333333333333,,44.94987499999999
232,2015-08-10,6.815958333333334,,41.68862499999999
232,2015-08-11,1.9945416666666669,,12.356041666666668
232,2015-08-12,7.855791666666666,,47.867708333333326
232,2015-08-13,8.171833333333332,,45.10279166666666
232,2015-08-14,7.8901666666666666,,47.95829166666667
232,2015-08-15,7.336041666666667,,44.81791666666666
232,2015-08-16,7.196999999999999,,43.97512499999999
232,2015-08-17,6.839416666666666,,41.934875
232,2015-08-18,6.309583333333335,,39.02429166666666
232,2015-08-19,6.843625000000002,,42.19404166666667
232,2015-08-20,5.195,,32.26720833333332
232,2015-08-21,7.108875,,43.379749999999994
232,2015-08-22,7.578291666666669,,46.270291666666665
232,2015-08-23,5.561791666666667,,33.88195833333333
232,2015-08-24,5.984958333333332,,37.443458333333325
232,2015-08-25,4.995749999999998,,30.775916666666664
232,2015-08-26,7.454458333333332,,45.67333333333333
232,2015-08-27,7.047333333333332,,43.307666666666655
232,2015-08-28,7.598124999999999,,46.44158333333333
232,2015-08-29,7.002750000000002,,42.71395833333334
232,2015-08-30,4.453250000000001,,27.262916666666662
232,2015-08-31,5.5375000000000005,,33.954249999999995
232,2015-09-01,6.1192916666666655,,38.02933333333333
232,2015-09-02,6.241708333333334,,38.51716666666667
232,2015-09-03,6.270625000000002,,38.697374999999994
232,2015-09-04,3.509833333333333,,21.718874999999993
232,2015-09-05,7.413833333333334,,45.80895833333333
232,2015-09-06,7.0101666666666675,,43.402875
232,2015-09-07,6.763125,,41.83725
232,2015-09-08,6.404791666666668,,39.592875
232,2015-09-09,5.345375000000001,,32.877874999999996
232,2015-09-10,1.3700833333333335,,8.472458333333334
232,2015-09-11,4.523666666666666,,27.81358333333333
232,2015-09-12,3.048666666666666,,19.286291666666667
232,2015-09-13,5.347375,,32.86970833333333
232,2015-09-14,6.82725,,42.070125
232,2015-09-15,6.861041666666666,,42.486
232,2015-09-16,6.726666666666667,,41.664249999999996
232,2015-09-17,6.515125,,40.29116666666666
232,2015-09-18,6.326249999999999,,39.25249999999999
232,2015-09-19,5.939416666666666,,36.763541666666654
232,2015-09-20,5.9685000000000015,,36.634125
232,2015-09-21,5.727583333333333,,35.608083333333326
232,2015-09-22,4.300708333333334,,26.535874999999997
232,2015-09-23,6.475333333333332,,40.0655
232,2015-09-24,6.306708333333333,,39.26695833333332
232,2015-09-25,5.243958333333333,,32.599958333333326
232,2015-09-26,5.436166666666668,,33.65545833333332
232,2015-09-27,5.277916666666666,,33.13691666666666
232,2015-09-28,3.400833333333333,,21.055374999999994
232,2015-09-29,3.212624999999999,,20.092374999999997
232,2015-09-30,1.6921250000000005,,10.537375000000003
232,2015-10-01,2.5824166666666675,,15.993208333333328
232,2015-10-02,1.1923333333333332,,7.445916666666667
232,2015-10-03,1.2705416666666665,,7.947
232,2015-10-04,5.741583333333334,,35.394
232,2015-10-05,4.727458333333333,,29.43904166666666
232,2015-10-06,5.749291666666665,,35.94745833333332
232,2015-10-07,5.256958333333333,,30.760166666666663
232,2015-10-08,4.7067499999999995,,29.254125
232,2015-10-09,2.973166666666666,,18.491333333333326
232,2015-10-10,5.980541666666667,,37.30991666666666
232,2015-10-11,5.574625000000001,,34.671875
232,2015-10-12,5.538916666666666,,34.55833333333333
232,2015-10-13,3.233916666666666,,20.35154166666666
232,2015-10-14,3.2291666666666665,,20.457375
232,2015-10-15,5.495541666666667,,34.31429166666666
232,2015-10-16,5.227958333333333,,32.55749999999999
232,2015-10-17,4.625291666666667,,29.051666666666655
232,2015-10-18,4.057666666666667,,25.748916666666663
232,2015-10-19,5.439375000000001,,34.02404166666666
232,2015-10-20,4.7015416666666665,,26.778708333333327
232,2015-10-21,4.526166666666666,,28.02112499999999
232,2015-10-22,3.792333333333333,,23.64358333333333
232,2015-10-23,4.9156249999999995,,30.496708333333327
232,2015-10-24,3.400166666666667,,21.43733333333333
232,2015-10-25,1.8915,,11.668583333333334
232,2015-10-26,4.927833333333333,,30.65674999999999
232,2015-10-27,3.169541666666667,,20.019291666666657
232,2015-10-28,0.6370833333333334,,3.9962083333333336
232,2015-10-29,3.5504166666666666,,22.04245833333333
232,2015-10-30,4.6804999999999986,,29.132416666666657